Torna al catalogo

IUS R/B(2)

AttivoGEO
NORAD 19913·ROCKET BODY·🇺🇸 United States

Lanciato Mar 13, 1989 da Cape Canaveral Space Force Station

Loading…

TLE

AggiornatoSource: Space-Track

Epoca: Sep 14, 2026, 01:37 UTC

1 19913U 89021D   26257.06768338 -.00000261  00000-0  00000-0 0  9996
2 19913   8.5707 320.1572 0023361 197.4691 176.8227  1.00605898126553

Traccia IUS R/B(2) in tempo reale con AllMySat

Download on the App Store